www.pogodaiklimat.ru

Погода и климат >> Архив погоды >> Украина >> Киев


АРХИВ ПОГОДЫ в Киеве

Время (UTC), дата Ветер
(напр.,м/с)
 
Видим.   Явления Облачность Т
(С)
Тd
(С)
f
(%)
Тe
(С)
Тes
(С)
Комфортность P
(гПа)
Po
(гПа)
Тmin
(С)
Tmax
(С)
R
(мм)
R24
(мм)
S
(см)
06 22.04 З 5 10 км слабый дождь 10/0
[Ac As]
+7.4 +2.9 73 +4 +5 прохладно 1007.6 987.4 +6.0 0.0
09 22.04 З 7 20 км {ливн. осадки, дождь} 9/5 600 м
[Cb cap Ac trans Cs]
+12.4 +3.5 55 +10 +11 по сезону 1006.1 986.2
12 22.04 З 7 20 км {ливн. осадки, дождь} 10/8 600 м
[Cb cap Ac As]
+10.2 +3.6 64 +7 +7 холодно 1006.7 986.7
15 22.04 СЗ 3 20 км в посл. час ливневой дождь 6/3 600 м
[Cb cap Ci sp]
+11.0 +2.8 57 +9 +11 прохладно 1006.3 986.3
18 22.04 СЗ 2 20 км {ливн. осадки} 9/6 600 м
[Sc Ac lent Ci]
+9.8 -3.7 38 +9 +9 по сезону 1007.7 987.6 +12.9 0.1
21 22.04 СЗ 1 20 км 9/0
[Ac trans Ci]
+7.0 -4.0 45 +7 +7 по сезону 1008.5 988.2
00 23.04 СЗ 2 20 км 8/3 600 м
[Sc Cs]
+6.0 -4.4 47 +4 +4 прохладно 1008.6 988.2
03 23.04 СЗ 2 20 км 4/0
[Ac cast Ci]
+3.8 -3.1 61 +1 +1 холодно 1008.6 988.1
06 23.04 СЗ 3 20 км 3/0
[Ci sp]
+6.7 -1.9 54 +4 +8 прохладно 1009.3 989.0 +3.4
09 23.04 СЗ 3 20 км 8/8 600 м
[Cb cap]
+8.5 -4.3 40 +7 +9 прохладно 1008.9 988.7
12 23.04 С 2 20 км 8/8 600 м
[Cb cap]
+10.1 -5.2 34 +9 +12 прохладно 1008.0 987.9
15 23.04 СВ 2 20 км 8/8 600 м
[Cb cap]
+8.8 -1.9 47 +8 +8 прохладно 1008.7 988.5
18 23.04 С 2 20 км 5/5 1000 м
[Sc diur, vesp]
+6.6 -1.0 58 +5 +5 холодно 1010.8 990.4 +11.2
21 23.04 СЗ 2 20 км 3/0
[Ac trans]
+5.0 -0.6 67 +3 +3 холодно 1011.7 991.2
00 24.04 С 3 20 км 8/0
[Ac trans]
+3.5 0.0 78 -0 -0 холодно 1012.0 991.4
03 24.04 С 3 20 км 4/0
[Ac trans]
+2.7 0.0 82 -1 -1 очень
холодно
1012.8 992.1
06 24.04 СЗ 3 20 км 3/0
[Ci fib]
+5.4 -0.1 68 +2 +7 холодно 1013.8 993.3 +2.6
09 24.04 СЗ 2 20 км 8/8 600 м
[Cb cap]
+8.2 -3.3 44 +7 +10 прохладно 1013.8 993.5
12 24.04 С 4 20 км {ливн. осадки} 5/5 600 м
[Cb cap]
+10.5 -5.4 32 +9 +13 прохладно 1013.7 993.5
15 24.04 ЮЗ 1 20 км 8/5 600 м
[Cb cap Ci fib]
+8.1 -2.0 49 +8 +9 прохладно 1014.3 994.0
18 24.04 З 1 20 км ясно +6.3 -2.1 55 +6 +6 прохладно 1016.6 996.1 +10.7 0.0
21 24.04 З 3 20 км ясно +3.7 -0.3 75 0 0 очень
холодно
1018.1 997.4
00 25.04 З 2 20 км ясно +2.4 -0.6 81 -1 -1 очень
холодно
1018.7 997.9
03 25.04 З 2 20 км 3/0
[Ac trans]
+1.4 -1.8 79 -2 -2 очень
холодно
1019.3 998.4
06 25.04 З 2 20 км 8/8 1080 м
[Sc]
+6.8 -1.5 55 +5 +6 прохладно 1019.7 999.2 +0.9
09 25.04 ЮЗ 5 20 км 9/3 1000 м
[Cu hum Ac trans Ci fib]
+11.4 -1.9 39 +9 +12 по сезону 1018.8 998.6
12 25.04 ЮЗ 6 20 км 6/1 1000 м
[Cu hum Ci fib]
+15.0 -2.8 29 +14 +17 по сезону 1016.7 996.8
15 25.04 ЮЗ 6 20 км 3/0
[Ci fib]
+15.7 -3.0 27 +15 +16 тепло 1015.1 995.3
18 25.04 ЮЗ 3 20 км 8/0
[Ci fib]
+13.0 -1.0 38 +12 +12 по сезону 1015.3 995.3 +16.1
21 25.04 ЮЗ 3 20 км ясно +11.0 -0.4 45 +10 +10 по сезону 1015.4 995.2
00 26.04 ЮЗ 5 20 км ясно +9.5 +4.1 69 +6 +6 по сезону 1015.2 995.0
03 26.04 Ю 4 20 км 4/0
[Ci fib]
+6.7 +2.6 75 +3 +3 прохладно 1015.8 995.3
06 26.04 ЮЗ 5 20 км 1/0
[Ci fib]
+9.8 +2.0 58 +7 +10 по сезону 1016.2 996.0 +6.6
09 26.04 ЮЗ 7 20 км 9/4 1000 м
[Sc Ac lent Cc]
+15.7 +2.6 41 +14 +16 тепло 1015.8 996.0
12 26.04 ЮЗ 6 20 км 9/4 600 м
[Cb cap Ac lent Cs]
+20.0 +2.4 31 +20 +22 тепло 1014.2 994.7
15 26.04 ЮЗ 8 20 км 9/0
[Ac As]
+20.1 +2.6 31 +20 +20 тепло 1013.4 993.9
18 26.04 ЮЗ 7 20 км 8/0
[Cs]
+17.0 +3.7 41 +16 +16 тепло 1014.8 995.1 +21.3
21 26.04 ЮЗ 5 20 км 4/0
[Ci fib]
+12.6 +2.3 49 +11 +11 по сезону 1016.0 996.0
00 27.04 ЮЗ 4 20 км 6/0
[Ci sp]
+10.2 +2.8 60 +8 +8 по сезону 1015.8 995.6
03 27.04 ЮЗ 5 20 км 9/0
[As trans Cs]
+8.2 +3.3 71 +5 +5 прохладно 1015.5 995.2
06 27.04 ЮЗ 5 20 км 9/0
[Ac As Cs]
+9.4 +4.2 70 +6 +8 прохладно 1016.1 995.8 +7.9
09 27.04 ЮЗ 6 20 км 3/0
[Ci fib]
+17.9 +3.0 37 +17 +23 тепло 1015.0 995.3
12 27.04 ЮЗ 6 20 км 6/0
[Cs]
+21.8 +3.0 29 +22 +26 комфорт 1013.9 994.5
15 27.04 ЮЗ 5 20 км 8/0
[Cc]
+22.0 +3.0 29 +22 +23 комфорт 1013.5 994.1
18 27.04 ЮЗ 4 20 км 10/0
[Ac und]
+19.2 +3.9 36 +20 +20 тепло 1014.3 994.7 +23.7
21 27.04 ЮЗ 5 20 км 3/0
[Cc]
+15.9 +2.0 39 +15 +15 тепло 1015.6 995.8
00 28.04 Ю 3 20 км ясно +12.6 +2.6 51 +11 +11 тепло 1015.8 995.8
03 28.04 Ю 2 20 км 3/0
[Ac cast]
+9.3 +1.0 56 +8 +8 по сезону 1016.2 995.9
06 28.04 ЮЗ 4 20 км 5/0
[Cc]
+13.0 +0.7 43 +12 +15 тепло 1016.1 996.1 +8.7
09 28.04 ЮЗ 5 20 км 8/0
[Ac lent Ci fib]
+18.9 +2.1 33 +19 +24 тепло 1014.9 995.3
12 28.04 ЮЗ 6 20 км 5/0
[Ci fib]
+23.4 -0.4 21 +22 +27 комфорт 1013.2 993.9
15 28.04 ЮЗ 6 20 км 3/0
[Ci fib]
+23.7 -0.5 20 +22 +24 комфорт 1011.9 992.7
18 28.04 Ю 4 20 км 4/0
[Ac lent]
+20.1 -1.0 24 +20 +20 тепло 1012.4 992.9 +24.4
21 28.04 ЮЗ 5 20 км 5/0
[Ci fib]
+16.5 -1.1 30 +16 +16 тепло 1012.5 992.8
00 29.04 Ю 5 20 км 3/0
[Ac trans]
+13.7 -0.9 37 +12 +12 тепло 1011.9 992.0
03 29.04 Ю 3 20 км 8/0
[Ac cast]
+12.8 -1.3 38 +12 +12 тепло 1011.6 991.6

 

Местоположение метеостанции Киев (город Киев, Украина): широта 50.40 долгота 30.57 высота над уровнем моря 167 м.

В архиве по умолчанию представлена погода в Киеве за последнюю неделю. Архивные данные за месяц целиком и за предыдущие месяцы, начиная с января 2011 года, Вы можете получить, выбрав интересующий диапазон дат из раскрывающегося списка и нажав кнопку "Ввод!".

Внимание! Время в таблицах - всемирное. Для получения местного времени необходимо прибавить поправку, которая в Киеве равна 2 ч.

Смотрите также архив погоды в соседних городах и на ближайших метеорологических станциях:

Погода в Вышгороде (Киевская область, Украина) (21 км)
Погода в Борисполе (Киевская область, Украина) (29 км)
Погода в Барышевке (Киевская область, Украина) (54 км)
Погода в Фастове (Киевская область, Украина) (58 км)
Погода в Остере (Черниговская область, Украина) (65 км)
Погода в Тетереве (Киевская область, Украина) (78 км)
Погода в Белой Церкви (Киевская область, Украина) (79 км)
Погода в Мироновке (Киевская область, Украина) (87 км)
Погода в Яготине (Киевская область, Украина) (90 км)
Погода в Чернобыле (Киевская область, Украина) (101 км)

Пояснения к столбцам:

Ветер - указаны скорость ветра в м/с - средняя за 10 мин, порывы в срок и между сроками (в фигурных скобках) и направление, откуда дует ветер: С - северный, СВ - северо-восточный, В - восточный, ЮВ - юго-восточный, Ю - южный, ЮЗ - юго-западный, З - западный, СЗ - северо-западный.
Видимость - горизонтальная дальность видимости в метрах или километрах. При видимости от 1 до 10 км при отсутствии осадков обычно наблюдается дымка, при ухудшении видимости до 1 км и менее - туман. В сухую погоду видимость может ухудшаться дымом, пылью или мглою.
Явления - указаны атмосферные явления, наблюдавшиеся в срок или в последний час перед сроком; фигурными скобками обозначены явления, наблюдавшиеся между сроками (за 1-3 часа до срока); квадратными скобками обозначены град или гололедные отложения с указанием их диаметра в мм.
Облачность - указаны через наклонную черту общая и нижняя облачность в баллах и высота нижней границы облаков в метрах; квадратными скобками обозначены формы облаков: Ci - перистые, Cs - перисто-слоистые, Cc - перисто-кучевые, Ac - высококучевые, As - высокослоистые, Sc - слоисто-кучевые, Ns - слоисто-дождевые, Cu - кучевые, Cb - кучево-дождевые. Подробнее классификацию облаков см. в Атласе облаков (PDF).
T - Температура воздуха - температура, измеренная на высоте 2 м над землей.
Td - Температура точки росы - температура, при понижении до которой содержащийся в воздухе водяной пар достигнет насыщения.
f - Относительная влажность воздуха - влажноcть воздуха, измеренная на высоте 2 м над землей.
Te - Эффективная температура - температура, которую ощущает одетый по сезону человек в тени. Характеристика душности погоды. При расчете учитывается влияние влажности воздуха и скорости ветра на теплоощущения человека.
Tes - Эффективная температура на солнце - температура, которую ощущает человек, с поправкой на солнечный нагрев. Характеристика знойности погоды. Зависит от высоты солнца над горизонтом, облачности и скорости ветра. Ночью, в пасмурную погоду, а также при ветре 12 м/с и более поправка равна нулю.
P - Атмосферное давление - приведенное к уровню моря атмосферное давление.
Po - Атмосферное давление - измеренное на уровне метеостанции атмосферное давление.
Tmin - Минимальная температура - минимум температуры воздуха на высоте 2 м над землей.
Tmax - Максимальная температура - максимум температуры воздуха на высоте 2 м над землей.
R - Количество осадков - Количество выпавших осадков за период времени, мм. При наведении курсора мыши на число - период времени, за который выпало указанное количество осадков.
R24 - Количество осадков - Количество выпавших осадков за 24 часа, мм.
S - Снежный покров - Высота снежного покрова, см. При наведении курсора мыши на число - состояние снежного покрова и степень покрытия местности в баллах.